User: anonymous   Login
Location: Unspecified
(0.0000°N, 0.0000°E)
Time: 20:25:00
(UTC+00:00)
Language:

TBA - TO BE ASSIGNED - Orbit

View from above orbital plane
View from above orbital plane
View from above satellite
View from above satellite

Ground track
Ground track

The orbit is defined by the following mean orbital elements,

1 68714U          26145.41090527 +.00000000 +00000-0 +10238-2 0 00001
2 68714  53.1595  38.1294 0000596  84.7985 275.3092 15.49357486    04
Epoch (UTC): 25 May 2026 09:51:42
Eccentricity: 0.0000596
inclination: 53.1595°
perigee height: 418 km
apogee height: 419 km
right ascension of ascending node: 38.1294°
argument of perigee: 84.7985°
revolutions per day: 15.49357486
mean anomaly at epoch: 275.3092°

The dashed part of the orbit path shows where the satellite is in the earth's shadow,  

DLR